Regional Weather Roundup
Issued by NWS Burlington, VT

Home | Current Version | Previous Version | Text Only | Print | Product List | Glossary On
Versions: 1 2 3 4 5 6 7 8 9 10 11 12 13 14 15 16 17 18 19 20 21 22 23 24 25 26 27 28 29 30 31 32 33 34 35 36 37 38 39 40 41 42 43 44 45 46 47 48 49 50
000
ASUS41 KBTV 230930
RWRBTV
VERMONT REGIONAL WEATHER ROUNDUP
NATIONAL WEATHER SERVICE BURLINGTON VT
400 AM EST SUN NOV 23 2014

NOTE: "FAIR" INDICATES FEW OR NO CLOUDS BELOW 12,000 FEET WITH NO
SIGNIFICANT WEATHER AND/OR OBSTRUCTIONS TO VISIBILITY.

* THESE REPORTS ARE NOT UNDER NWS QUALITY CONTROL AND/OR DO NOT
  REPORT WEATHER SUCH AS PRECIPITATION AND FOG.

VTZ001>019-231000-
_____VERMONT_____


CITY           SKY/WX    TMP DP  RH WIND       PRES   REMARKS
BURLINGTON     CLOUDY    40  34  79 S15G22    29.97S
MONTPELIER     CLOUDY    41  36  82 VRB5      29.99R
ST. JOHNSBURY*   N/A     38  34  85 MISG      29.95S
LYNDONVILLE*   LGT RAIN  35  31  84 CALM      29.97R
MIDDLEBURY*    CLOUDY    40  38  89 S8G17     30.01S
RUTLAND*       CLOUDY    43  37  81 S7G20     30.04R
SPRINGFIELD    CLOUDY    42  39  89 S6        30.03S
HIGHGATE*      MIX PCPN  38  35  89 S5        29.96R
NEWPORT*       CLOUDY    37  34  90 S3        29.95R
BENNINGTON     CLOUDY    38  36  92 CALM      30.06F FOG
SUTTON*          N/A     32 N/A N/A MISG        N/A
GALLUP MILLS*    N/A     32 N/A N/A MISG        N/A
UNION VILLAGE*   N/A     34 N/A N/A MISG        N/A
MT. MANSFIELD*   N/A     32 N/A N/A NW17G32     N/A

_____LAKE CHAMPLAIN_____


CITY           SKY/WX    TMP DP  RH WIND       PRES   REMARKS
BURTON ISLAND*   N/A     41  37  87 S21         N/A
COLCHESTER RF*   N/A     41  36  81 SW24        N/A
DIAMOND ISL*     N/A     39  34  81 S10         N/A

$$

NYZ007-026>031-035-052-083-231000-
_____NORTHERN NEW YORK_____


CITY           SKY/WX    TMP DP  RH WIND       PRES   REMARKS
PLATTSBURGH    CLOUDY    38  35  89 S5        29.96R
SARANAC LAKE   LGT SNOW  38  37  97 SW8       29.92S FOG
MASSENA        CLOUDY    41  41 100 SW12      29.96S FOG
OGDENSBURG*    CLOUDY    41  41 100 SW5       29.96R FOG
POTSDAM*       DRIZZLE   43  43 100 SW10      29.96R
STARK FALLS*     N/A     39 N/A N/A SW10        N/A
WATERTOWN      CLOUDY    45  40  82 SW7       29.98S
FT DRUM        CLOUDY    41  41 100 W8        29.98R
ALBANY         LGT RAIN  38  31  76 S7        30.08F
GLENS FALLS    CLOUDY    35  32  88 S8        30.06S FOG

$$
NHZ002-005-011-231000-
_____NEW HAMPSHIRE_____


CITY           SKY/WX    TMP DP  RH WIND       PRES   REMARKS
LEBANON        CLOUDY    40  34  79 S8        30.01R
KEENE          PTSUNNY   36  30  80 CALM      30.07F
MT WASHINGTON  SNOWSHWR  23  23 100 W54         N/A  VSB 0   WCI   1
PLYMOUTH       CLOUDY    35  35 100 CALM      30.00R FOG
WHITEFIELD     LGT RAIN  41  36  82 CALM      29.96R

$$

_____REGIONAL QUEBEC LOCATIONS_____


CITY           SKY/WX    TMP DP  RH WIND       PRES   REMARKS
MONTREAL       CLOUDY    39  37  93 SW8       29.94R FOG
QUEBEC CITY    SNOWSHWR  34  32  93 SW10      29.90R
SHERBROOKE     LGT RAIN  36  36 100 SW5       29.93R VSB 3/4

_____REGIONAL ONTARIO LOCATIONS_____


CITY           SKY/WX    TMP DP  RH WIND       PRES   REMARKS
OTTAWA         CLOUDY    39  37  93 SW6       29.94R FOG

______KEY______
VSB  - VISIBILITY IN MILES
WCI  - WIND CHILL INDEX
HX   - HEAT INDEX
$$
NNNN


USA.gov is the U.S. government's official web portal to all federal, state and local government web resources and services.